Location: Newark
(33.6333°S, 78.8500°W)
Time: 16:22:38
(UTC+00:00)

S-56A Canister/Altair - All Passes

Search period start: 23 October 2019 00:00
Search period end: 02 November 2019 00:00
Orbit: 633 x 2499 km, 38.9° (Epoch: 22 October)

Date Brightness Start Highest point End Pass type
(mag) Time Alt. Az. Time Alt. Az. Time Alt. Az.
23 Oct - 02:03:46 10° W 02:07:47 16° NW 02:11:07 10° N visible
23 Oct - 14:57:08 10° N 15:07:47 24° NE 15:17:59 10° E daylight
23 Oct - 16:58:37 10° NW 17:13:24 60° NNE 17:25:38 10° ESE daylight
23 Oct - 19:05:14 10° WNW 19:19:56 80° SSW 19:30:29 10° ESE daylight
23 Oct - 21:14:02 10° W 21:26:36 66° S 21:34:50 10° E daylight
23 Oct - 23:22:02 10° WSW 23:32:07 83° NNW 23:38:36 10° ENE daylight
24 Oct - 01:29:50 10° W 01:35:19 22° NW 01:39:35 10° N visible
24 Oct - 14:24:55 10° N 14:34:28 20° NE 14:43:54 10° E daylight
24 Oct - 16:25:19 10° NW 16:39:52 56° NE 16:52:32 10° ESE daylight
24 Oct - 18:31:22 10° WNW 18:46:26 84° SSW 18:57:40 10° ESE daylight
24 Oct - 20:40:03 10° W 20:53:19 67° S 21:02:12 10° E daylight
24 Oct - 22:48:18 10° WSW 22:59:14 90° NNW 23:06:11 10° ENE daylight
25 Oct - 00:56:01 10° W 01:02:49 28° NW 01:07:46 10° NNE visible
25 Oct - 13:53:03 10° NNE 14:01:12 17° NE 14:09:25 10° E daylight
25 Oct - 15:52:09 10° NNW 16:06:21 51° NE 16:19:17 10° ESE daylight
25 Oct - 17:57:35 10° WNW 18:12:53 88° SSW 18:24:48 10° ESE daylight
25 Oct - 20:06:02 10° W 20:19:58 68° S 20:29:31 10° E daylight
25 Oct - 22:14:30 10° WSW 22:26:14 85° SSE 22:33:43 10° ENE daylight
26 Oct - 00:22:14 10° WSW 00:30:14 35° NW 00:35:50 10° NNE visible
26 Oct - 13:21:47 10° NNE 13:27:59 14° NE 13:34:19 10° ENE daylight
26 Oct - 15:19:07 10° NNW 15:32:50 46° NE 15:45:56 10° ESE daylight
26 Oct - 17:23:53 10° WNW 17:39:16 88° NNE 17:51:51 10° ESE daylight
26 Oct - 19:32:02 10° W 19:46:30 69° S 19:56:46 10° ESE daylight
26 Oct - 21:40:39 10° WSW 21:53:08 80° SSE 22:01:12 10° ENE daylight
26 Oct - 23:48:28 10° WSW 23:57:36 43° NW 00:03:46 10° NNE visible
27 Oct - 12:52:12 10° NE 12:54:50 11° NE 12:57:29 10° ENE daylight
27 Oct - 14:46:14 10° NNW 14:59:22 42° NE 15:12:27 10° ESE daylight
27 Oct - 16:50:19 10° WNW 17:05:38 83° NNE 17:18:48 10° ESE daylight
27 Oct - 18:58:04 10° W 19:12:58 71° S 19:23:57 10° ESE daylight
27 Oct - 21:06:45 10° WSW 21:19:56 77° SSE 21:28:38 10° E daylight
27 Oct - 23:14:40 10° WSW 23:24:52 51° NW 23:31:36 10° NE daylight
28 Oct - 14:13:31 10° NNW 14:25:57 37° NE 14:38:49 10° ESE daylight
28 Oct - 16:16:52 10° NW 16:31:58 79° NNE 16:45:40 10° ESE daylight
28 Oct - 18:24:09 10° W 18:39:21 72° S 18:51:03 10° ESE daylight
28 Oct - 20:32:49 10° WSW 20:46:38 75° SSE 20:55:58 10° E daylight
28 Oct - 22:40:51 10° WSW 22:52:02 59° NW 22:59:20 10° NE daylight
29 Oct - 00:51:08 10° W 00:54:42 13° NW 00:57:48 10° NNW visible
29 Oct - 13:40:59 10° N 13:52:35 33° NE 14:05:00 10° ESE daylight
29 Oct - 15:43:31 10° NW 15:58:18 74° NNE 16:12:26 10° ESE daylight
29 Oct - 17:50:19 10° W 18:05:40 75° SSW 18:18:05 10° ESE daylight
29 Oct - 19:58:52 10° WSW 20:13:14 73° S 20:23:14 10° E daylight
29 Oct - 22:07:00 10° WSW 22:19:06 67° NNW 22:27:00 10° NE daylight
30 Oct - 00:16:21 10° W 00:22:10 18° NW 00:26:48 10° NNW visible
30 Oct - 13:08:38 10° N 13:19:17 28° NE 13:31:00 10° E daylight
30 Oct - 15:10:20 10° NW 15:24:39 69° NNE 15:39:06 10° ESE daylight
30 Oct - 17:16:34 10° W 17:31:57 77° SSW 17:45:01 10° ESE daylight
30 Oct - 19:24:55 10° WSW 19:39:43 72° S 19:50:26 10° E daylight
30 Oct - 21:33:07 10° WSW 21:46:03 75° NNW 21:54:34 10° NE daylight
30 Oct - 23:42:00 10° W 23:49:34 23° NW 23:55:16 10° N daylight
31 Oct - 12:36:31 10° N 12:46:04 24° NE 12:56:45 10° E daylight
31 Oct - 14:37:17 10° NW 14:51:03 63° NE 15:05:39 10° ESE daylight
31 Oct - 16:42:55 10° WNW 16:58:10 80° SSW 17:11:52 10° ESE daylight
31 Oct - 18:51:01 10° W 19:06:08 71° S 19:17:33 10° E daylight
31 Oct - 20:59:14 10° WSW 21:12:54 81° NNW 21:22:03 10° ENE daylight
31 Oct - 23:07:49 10° WSW 23:16:54 29° NW 23:23:29 10° N daylight
01 Nov - 12:04:41 10° NNE 12:12:56 20° NE 12:22:13 10° E daylight
01 Nov - 14:04:21 10° NW 14:17:30 58° NE 14:32:06 10° ESE daylight
01 Nov - 16:09:23 10° WNW 16:24:24 83° SSW 16:38:39 10° ESE daylight
01 Nov - 18:17:09 10° W 18:32:27 71° S 18:44:34 10° E daylight
01 Nov - 20:25:20 10° WSW 20:39:37 87° NNW 20:49:27 10° ENE daylight
01 Nov - 22:33:43 10° WSW 22:44:08 36° NW 22:51:30 10° NNE daylight
